FREGAT R/B, 44851

Orbit data source: Space-Track

FREGAT R/B, 44851 is space debris in MEO originally from a launch on Wed, 11 Dec 2019 UTC launched from the Plesetsk Missile And Space Complex (PKMTR). Debris objects in space refer to the collection of defunct objects orbiting the Earth. Examples of debris include non-operational satellites, rocket bodies, and fragments generated from explosions, collisions, or faulty payload assembly.

Loading next visibility...
Identifier
44851, 2019-088B
Orbit
MEO
Country
Flag of CISCIS
Related business
Manufacturer
Lavochkin
Mission
Spacecraft
Bus & Motor
FREGAT, Unknown motor
Mass
1,000 kg wet, 1,000 kg dry
Launch date (UTC)
2019-12-11 (6 years ago)
Launch vehicle
Unknown
Launch site
Plesetsk Missile And Space Complex (PKMTR)
Object type
Payload
Rocket body
Debris
Shape & HBR
Cyl, 1.7 m
Radar Cross Section
8.354 m², Large (>1 m²)

Expand to show TLE details & history
Last TLE update: 18 hours ago

TLE from 18 hours ago
0 FREGAT R/B
1 44851U 19088B   25290.49337801  .00000041  00000-0  00000-0 0  9996
2 44851  65.3835  84.6264 0107839  99.6512 261.5770  2.09212853 44743
Epoch: 2025-10-17T11:50Z
TLE epoch observation values (Epoch: 2025-10-17T11:50:27.860Z)
Latitude
-0.00007°
Longitude
-119.24373°
Altitude
19,489.499 km
Speed
3.922 km/s
True Right ascension
05h 38m 26s
True Declination
0° 00' 00"
Sunlit
Object was in daylight at epoch
Visualization orbit readout
Latitude
Unknown
Longitude
Unknown
Altitude
Unknown
Speed
Unknown
Apparent Right ascension
Unknown
Apparent Declination
Unknown
Sunlit
N/A
Visualization observer readout
Local Sidereal Time
00:13:34
Azimuth
Unknown
Elevation
Unknown
Doppler factor
Unknown
Orbital elements
Apogee altitude
19,723.113 km
Perigee altitude
19,166.172 km
Semi-major axis
25,822.78 km
Eccentricity
0.01078
Inclination
65.3835°
RAAN
84.6264°
Arg. of periapsis
99.6512°
True anomaly
260.35709°
Mean anomaly
261.577°
Eccentric anomaly
260.96679°
Mean motion
0.52304 °/min
Orbital period
688.28 mins
BSTAR
0
Loading maneuver chart data...
Computing Atmospheric mass density...
Loading historical data...
Loading historical data...
Loading historical data...
Loading historical data...
Loading historical data...
Loading historical data...
Loading historical data...
Other satellites on launch #88 in the year 2019 (2019-12-11 UTC)

Documentation

Showing up to 5 results
|